Weather observations for the past three days for
Falls International Airport
Imperial (Metric)
Date Time (cdt) Wind (mph) Vis. (mi.) Weather Sky Cond. Temperature (ºF) Relative Humidity Wind Chill (°F) Heat Index (°F) Pressure Precipitation (in)
Air Dwpt 6 hour altimeter (in) sea level (mb) 1 hr 3 hr 6 hr
Max. Min.
20 09:54 Calm 10.00 Fair CLR 73.9 66 76% 30.09 1018.7
20 08:54 W 5 10.00 Partly Cloudy SCT100 68 64.9 90% 30.08 1018.7
20 07:54 Calm 7.00 Mostly Cloudy SCT090 BKN110 63 62.1 97% 30.08 1018.5
20 06:54 Calm 6.00 Fog/Mist BKN110 59 57.9 59 55 96% 30.06 1018.2
20 05:54 Calm 6.00 Fog/Mist CLR 55.9 55 97% 30.05 1017.6
20 04:54 Calm 6.00 Fog/Mist CLR 57 55.9 96% 30.04 1017.2
20 03:54 Calm 6.00 Fog/Mist CLR 57 55.9 96% 30.03 1016.8
20 02:54 Calm 2.50 Fog/Mist CLR 55.9 55 97% 30.04 1017.0
20 01:54 Calm 8.00 Fair CLR 57.9 55.9 93% 30.04 1017.1
20 00:54 Calm 10.00 Fair CLR 57.9 57 71.1 57.9 97% 30.04 1017.2
19 23:54 Calm 10.00 A Few Clouds FEW065 61 60.1 97% 30.04 1017.0
19 22:54 Calm 10.00 Fair CLR 62.1 60.1 93% 30.04 1017.0
19 21:54 SW 3 10.00 Fair CLR 61 59 93% 30.03 1016.8
19 20:54 Calm 10.00 Fair CLR 66 63 90% 30.02 1016.7
19 19:54 SW 5 10.00 Fair CLR 70 63 79% 30.02 1016.8
19 18:54 W 7 10.00 Fair CLR 70 62.1 82.9 69.1 76% 30.03 1017.0 0.35
19 17:54 W 8 10.00 Partly Cloudy SCT050 73.9 64 71% 30.02 1016.7 0.23
19 16:54 W 9 G 31 1.50 Thunderstorm in Vicinity Heavy Rain FEW038 BKN050 OVC090 70 60.1 71% 30.02 1016.7 0.12
19 15:54 SW 6 10.00 A Few Clouds FEW050 FEW070 82 63 53% 83 30.01 1016.3
19 14:54 Vrbl 5 10.00 Partly Cloudy SCT090 82 61 49% 83 30.02 1016.5
19 13:54 W 8 10.00 A Few Clouds FEW080 80.1 61 52% 81 30.02 1016.7
19 12:54 Vrbl 5 10.00 Fair CLR 80.1 61 80.1 54 52% 81 30.03 1016.8
19 11:54 W 8 10.00 Mostly Cloudy BKN047 79 60.1 52% 80 30.03 1017.1
19 10:54 Vrbl 5 10.00 Fair CLR 77 60.1 56% 79 30.04 1017.2
19 09:54 Vrbl 5 10.00 Fair CLR 73.9 59 60% 30.06 1017.8
19 08:54 SW 3 10.00 Partly Cloudy SCT060 66.9 57.9 73% 30.07 1018.1
19 07:54 Calm 10.00 Fair CLR 59 55.9 90% 30.07 1018.3
19 06:54 Calm 10.00 A Few Clouds FEW047 54 52 54 50 93% 30.07 1018.5
19 05:54 Calm 10.00 Fair CLR 52 50 93% 30.07 1018.2
19 04:54 Calm 10.00 Fair CLR 50 48.9 96% 30.06 1018.1
19 03:54 Calm 10.00 Fair CLR 50 48 93% 30.06 1017.9
19 02:54 Calm 10.00 Fair CLR 50 48.9 96% 30.05 1017.8
19 01:54 Calm 10.00 Fair CLR 51.1 48.9 92% 30.07 1018.3
19 00:54 Calm 10.00 Fair CLR 53.1 51.1 75.9 53.1 93% 30.08 1018.7
18 23:54 Calm 10.00 Fair CLR 55 53.1 93% 30.08 1018.6
18 21:54 SW 3 10.00 Fair CLR 59 55 87% 30.08 1018.9
18 20:54 SW 3 10.00 A Few Clouds FEW055 68 55 63% 30.07 1018.4
18 19:54 W 3 10.00 Fair CLR 73.9 54 50% 30.08 1018.6
18 18:54 W 6 10.00 Fair CLR 75.9 53.1 78.1 73 45% 78 30.09 1018.9
18 17:54 W 9 10.00 A Few Clouds FEW055 77 53.1 43% 78 30.1 1019.5
18 16:54 SW 8 10.00 A Few Clouds FEW060 77 52 42% 78 30.11 1019.9
18 15:54 Vrbl 5 10.00 A Few Clouds FEW060 77 53.1 43% 78 30.12 1020.3
18 14:54 W 6 10.00 A Few Clouds FEW050 75.9 53.1 45% 78 30.14 1020.7
18 13:54 W 9 10.00 Mostly Cloudy BKN050 75 52 45% 78 30.15 1021.2
18 12:54 W 8 10.00 Mostly Cloudy BKN048 73 52 75 50 48% 30.17 1021.7
18 11:54 W 7 10.00 Mostly Cloudy BKN049 73 52 48% 30.17 1021.9
18 10:54 W 9 10.00 Partly Cloudy SCT040 70 52 53% 30.18 1022.4
18 09:54 Vrbl 5 10.00 Fair CLR 66.9 54 63% 30.19 1022.8
18 08:54 Calm 10.00 Fair CLR 64.9 53.1 66% 30.21 1023.1
18 07:54 SW 3 10.00 Fair CLR 57 52 83% 30.21 1023.2
18 06:54 Calm 10.00 Fair CLR 50 48 50 44.1 93% 30.21 1023.2
18 05:54 Calm 10.00 Fair CLR 45 43 93% 30.2 1023.2
18 04:54 Calm 10.00 Fair CLR 44.1 43 96% 30.19 1022.9
18 03:54 Calm 10.00 Fair CLR 44.1 42.1 93% 30.18 1022.6
18 02:54 Calm 10.00 Fair CLR 46 44.1 93% 30.18 1022.3
18 01:54 Calm 10.00 Fair CLR 46.9 44.1 90% 30.18 1022.3
18 00:54 Calm 10.00 Fair CLR 48 45 71.1 46.9 89% 30.17 1022.2
17 23:54 Calm 10.00 Fair CLR 48.9 46 90% 30.17 1022.0
17 22:54 Calm 10.00 Fair CLR 50 48 93% 30.17 1022.0
17 21:54 Calm 10.00 Fair CLR 53.1 50 89% 30.17 1022.0
17 20:54 W 3 10.00 Fair CLR 61 50 67% 30.16 1021.6
17 19:54 NW 7 10.00 A Few Clouds FEW055 68 48.9 51% 30.16 1021.4
17 18:54 N 5 10.00 Mostly Cloudy BKN055 71.1 48 72 64.9 44% 30.16 1021.3
17 17:54 Vrbl 5 10.00 A Few Clouds FEW055 70 48 46% 30.16 1021.5
17 16:54 N 8 10.00 Mostly Cloudy BKN060 69.1 46.9 45% 30.16 1021.7
17 15:54 NW 9 10.00 Mostly Cloudy BKN060 70 48 46% 30.17 1021.8
17 14:54 N 10 10.00 Mostly Cloudy BKN049 BKN060 68 46.9 47% 30.18 1022.2
17 13:54 NW 8 10.00 Overcast FEW045 OVC060 66.9 48 51% 30.18 1022.2
17 12:54 N 10 10.00 Mostly Cloudy BKN048 BKN055 64.9 48 66.9 54 54% 30.18 1022.3
17 11:54 NW 5 10.00 Overcast FEW042 OVC050 64.9 48 54% 30.18 1022.2
17 10:54 N 9 10.00 Overcast SCT038 OVC049 63 48 58% 30.17 1022.0
Date Time (cdt) Wind (mph) Vis. (mi.) Weather Sky Cond. Air Dwpt Max. Min. Relative Humidity Wind Chill (°F) Heat Index (°F) altimeter (in) sea level (mb) 1 hr 3 hr 6 hr
6 hour
Temperature (ºF) Pressure Precipitation (in)